Location: La Comballaz
(46.3780°N, 7.0817°E)
Time: 01:14:54
(UTC+00:00)

XW-2D - Visible Passes

Search period start: 10 December 2022 00:00
Search period end: 20 December 2022 00:00
Orbit: 490 x 509 km, 97.5° (Epoch: 09 December)

Date Brightness Start Highest point End Pass type
(mag) Time Alt. Az. Time Alt. Az. Time Alt. Az.
10 Dec ? 05:48:27 10° NNE 05:52:07 85° ESE 05:55:45 10° SSW visible
10 Dec ? 16:28:45 10° SSE 16:32:17 52° ENE 16:35:51 10° N visible
10 Dec ? 18:04:54 10° WSW 18:06:21 12° W 18:07:48 10° WNW visible
11 Dec ? 05:28:43 10° NNE 05:32:15 47° E 05:35:46 10° S visible
11 Dec ? 17:43:37 10° SW 17:46:20 20° W 17:49:04 10° NW visible
12 Dec ? 05:09:10 10° NE 05:12:20 27° E 05:15:29 10° SSE visible
12 Dec ? 17:23:04 10° SSW 17:26:22 33° W 17:29:41 10° NNW visible
13 Dec ? 04:49:55 10° NE 04:52:20 17° E 04:54:45 10° SE visible
13 Dec ? 06:22:50 10° N 06:26:13 36° WNW 06:29:35 10° SW visible
13 Dec ? 17:02:51 10° S 17:06:27 58° W 17:10:03 10° NNW visible
14 Dec ? 06:02:47 10° N 06:06:25 64° WNW 06:10:01 10° SSW visible
14 Dec ? 16:42:56 10° SSE 16:46:34 79° ENE 16:50:12 10° N visible
15 Dec ? 05:42:53 10° NNE 05:46:32 72° ESE 05:50:10 10° S visible
15 Dec ? 16:23:15 10° SE 16:26:43 44° ENE 16:30:12 10° N visible
15 Dec ? 17:58:45 10° WSW 18:00:40 14° W 18:02:37 10° WNW visible
16 Dec ? 05:23:07 10° NNE 05:26:35 40° E 05:30:03 10° S visible
16 Dec ? 17:37:41 10° SSW 17:40:37 23° W 17:43:33 10° NW visible
17 Dec ? 05:03:34 10° NE 05:06:35 24° E 05:09:35 10° SSE visible
17 Dec ? 17:17:10 10° SSW 17:20:35 38° W 17:24:01 10° NNW visible
18 Dec ? 04:44:25 10° ENE 04:46:30 14° E 04:48:34 10° SE visible
18 Dec ? 06:16:57 10° N 06:20:26 43° WNW 06:23:55 10° SW visible
18 Dec ? 16:56:59 10° S 17:00:36 69° WSW 17:04:13 10° NNW visible
19 Dec ? 05:56:52 10° N 06:00:32 76° WNW 06:04:11 10° SSW visible
19 Dec ? 16:37:04 10° SSE 16:40:39 66° ENE 16:44:16 10° N visible
